Weather History for Rostov Na-Donu, Russia

Change the Weather History Date:

Monday, October 8, 2012

  Actual Average Record
Temperature  
Mean Temperature 66 °F -  
Max Temperature 82 °F - - ()
Min Temperature 51 °F - - ()
Cooling Degree Days 2    
Growing Degree Days 16 (Base 50)    
Moisture  
Dew Point 49 °F    
Average Humidity 60    
Maximum Humidity 88    
Minimum Humidity 35    
Precipitation  
Precipitation 0.00 in - - ()
Sea Level Pressure  
Sea Level Pressure 29.78 in    
Wind  
Wind Speed 7 mph ()    
Max Wind Speed 13 mph    
Max Gust Speed 22 mph    
Visibility 5.2 miles    
Events Rain , Thunderstorm    
T = Trace of Precipitation, MM = Missing Value Source: Averaged Metar Reports

Daily Weather History Graph

Daily Weather History Graph

Search for Another Location

Airport:

Trip Planner

Search our weather history database for the weather conditions in past years. The results will help you decide how hot, cold, wet, or windy it might be!

Date:

Astronomy

Oct. 08, 2012 Rise Set
Actual Time 7:29 AM MSK 6:46 PM MSK
Civil Twilight 6:58 AM MSK 7:16 PM MSK
Nautical Twilight 6:23 AM MSK 7:52 PM MSK
Astronomical Twilight 5:47 AM MSK 8:27 PM MSK
Moon No Moon Rise 2:46 PM MSK (10/8)
Length of Visible Light 12h 17m
Length of Day
11h 16m
Waning Gibbous, 50% of the Moon is Illuminated
Oct 8
Waning Gibbous
Oct 15
New
Oct 22
First Quarter
Oct 29
Full
Nov 7
Last Quarter

Hourly Weather History & Observations

Time (MSK) Temp. Dew Point Humidity Pressure Visibility Wind Dir Wind Speed Gust Speed Precip Events Conditions
12:00 AM 55.4 °F 41.0 °F 58% 29.95 in - NE 4.5 mph - N/A   Clear
12:30 AM 53.6 °F 41.0 °F 62% 29.95 in - ENE 4.5 mph - N/A   Clear
1:00 AM 53.6 °F 41.0 °F 62% 29.95 in - NE 4.5 mph - N/A   Clear
1:30 AM 55.4 °F 41.0 °F 58% 29.92 in - NNE 4.5 mph - N/A   Clear
2:00 AM 51.8 °F 41.0 °F 67% 29.92 in - NE 8.9 mph - N/A   Clear
2:30 AM 53.6 °F 41.0 °F 62% 29.92 in - NE 4.5 mph - N/A   Clear
3:00 AM 53.6 °F 42.8 °F 67% 29.92 in - NE 6.7 mph - N/A   Clear
3:30 AM 51.8 °F 42.8 °F 71% 29.89 in - NE 6.7 mph - N/A   Clear
4:00 AM 51.8 °F 42.8 °F 71% 29.89 in - East 8.9 mph - N/A   Clear
4:30 AM 51.8 °F 42.8 °F 71% 29.89 in - East 8.9 mph - N/A   Clear
5:00 AM 51.8 °F 42.8 °F 71% 29.89 in - East 8.9 mph - N/A   Clear
5:30 AM 51.8 °F 42.8 °F 71% 29.86 in - ENE 8.9 mph - N/A   Clear
6:00 AM 51.8 °F 41.0 °F 67% 29.86 in - East 8.9 mph - N/A   Clear
6:30 AM 51.8 °F 42.8 °F 71% 29.86 in - East 8.9 mph - N/A   Clear
7:00 AM 51.8 °F 42.8 °F 71% 29.86 in - East 8.9 mph - N/A   Clear
7:30 AM 53.6 °F 42.8 °F 67% 29.83 in - East 11.2 mph - N/A   Clear
8:00 AM 53.6 °F 44.6 °F 72% 29.83 in - East 11.2 mph - N/A   Clear
8:30 AM 55.4 °F 44.6 °F 67% 29.83 in - East 11.2 mph - N/A   Clear
9:00 AM 55.4 °F 46.4 °F 72% 29.83 in - East 11.2 mph - N/A   Clear
9:30 AM 57.2 °F 48.2 °F 72% 29.83 in - East 11.2 mph - N/A   Clear
10:00 AM 60.8 °F 50.0 °F 68% 29.80 in - East 11.2 mph - N/A   Clear
10:30 AM 60.8 °F 50.0 °F 68% 29.80 in - East 13.4 mph - N/A   Clear
11:00 AM 66.2 °F 51.8 °F 60% 29.80 in - East 11.2 mph 17.9 mph N/A   Clear
11:30 AM 68.0 °F 53.6 °F 60% 29.77 in - ESE 11.2 mph 20.1 mph N/A   Clear
12:00 PM 73.4 °F 53.6 °F 50% 29.77 in - ESE 8.9 mph 15.7 mph N/A   Clear
12:30 PM 77.0 °F 53.6 °F 44% 29.77 in - SE 8.9 mph - N/A   Clear
1:00 PM 78.8 °F 53.6 °F 42% 29.74 in - SSE 8.9 mph 15.7 mph N/A   Clear
1:30 PM 78.8 °F 53.6 °F 42% 29.74 in - SSE 8.9 mph - N/A   Clear
2:00 PM 80.6 °F 51.8 °F 37% 29.71 in - South 8.9 mph 15.7 mph N/A   Clear
2:30 PM 80.6 °F 51.8 °F 37% 29.71 in - South 8.9 mph 15.7 mph N/A   Clear
3:00 PM 82.4 °F 51.8 °F 35% 29.71 in - SSW 13.4 mph 20.1 mph N/A   Clear
3:30 PM 82.4 °F 51.8 °F 35% 29.71 in 6.2 mi South 11.2 mph 17.9 mph N/A   Scattered Clouds
4:00 PM 80.6 °F 51.8 °F 37% 29.71 in 6.2 mi SSW 13.4 mph 22.4 mph N/A   Scattered Clouds
4:30 PM 78.8 °F 50.0 °F 36% 29.68 in 6.2 mi WSW 13.4 mph 22.4 mph N/A   Scattered Clouds
5:00 PM 77.0 °F 50.0 °F 39% 29.68 in 6.2 mi WSW 11.2 mph 17.9 mph N/A   Scattered Clouds
5:30 PM 75.2 °F 50.0 °F 41% 29.68 in 6.2 mi SW 8.9 mph - N/A   Mostly Cloudy
6:00 PM 73.4 °F 51.8 °F 47% 29.68 in 6.2 mi West 4.5 mph - N/A   Mostly Cloudy
6:30 PM 71.6 °F 53.6 °F 53% 29.68 in 6.2 mi West 4.5 mph - N/A   Mostly Cloudy
7:00 PM 69.8 °F 51.8 °F 53% 29.68 in 6.2 mi West 4.5 mph - N/A   Mostly Cloudy
7:30 PM 69.8 °F 51.8 °F 53% 29.68 in 6.2 mi SW 6.7 mph - N/A   Mostly Cloudy
8:00 PM 68.0 °F 51.8 °F 56% 29.68 in 6.2 mi SSW 6.7 mph - N/A   Mostly Cloudy
8:30 PM 66.2 °F 53.6 °F 64% 29.68 in 4.3 mi SSW 6.7 mph - N/A Rain Light Rain Showers
9:00 PM 66.2 °F 55.4 °F 68% 29.68 in 4.3 mi South 6.7 mph - N/A Rain Light Rain Showers
9:30 PM 66.2 °F 59.0 °F 78% 29.68 in 6.2 mi South 8.9 mph - N/A Rain Light Rain Showers
10:00 PM 64.4 °F 59.0 °F 83% 29.68 in 4.3 mi SSW 6.7 mph - N/A Rain Light Rain Showers
10:30 PM 64.4 °F 60.8 °F 88% 29.68 in 4.3 mi SE 4.5 mph - N/A Rain Light Rain Showers
11:00 PM 64.4 °F 60.8 °F 88% 29.65 in 1.6 mi SSW 6.7 mph - N/A Rain , Thunderstorm Light Thunderstorms and Rain
11:30 PM 64.4 °F 60.8 °F 88% 29.65 in 1.9 mi WNW 6.7 mph - N/A Rain , Thunderstorm Light Rain Showers